When you browse on this site, cookies collect data to enhance your experience and personalize the content and advertising you see.
Visit our Privacy Policy to learn more. By continuing to use the site, you agree to this use of cookies and data.
  • Em Portugal
  • Lista de países
  • Para 7 dias
  • Temperatura da água
  • Mapa do tempo
  • Widgets de tempo
  • user-avatar
    Iniciar Sessão

    Previsão horária em Druskininkai

    Hoje, 6 Abril, Segunda-feira

    Tempo Temperatura Precipitação Vento Pressão Humidade
    00:00 +5°C° 0 mm 1 m/s 766 mmHg 68%
    01:00 +4°C° 0 mm 1 m/s 766 mmHg 68%
    02:00 +4°C° 0 mm 1 m/s 766 mmHg 69%
    03:00 +4°C° 0 mm 1 m/s 766 mmHg 68%
    04:00 +3°C° 0 mm 1 m/s 766 mmHg 68%
    05:00 +3°C° 0 mm 1 m/s 766 mmHg 68%
    06:00 +3°C° 0 mm 2 m/s 766 mmHg 64%
    07:00 +4°C° 0 mm 2 m/s 766 mmHg 60%
    08:00 +6°C° 0 mm 2 m/s 766 mmHg 56%
    09:00 +8°C° 0 mm 2 m/s 766 mmHg 49%
    10:00 +10°C° 0 mm 2 m/s 766 mmHg 43%
    11:00 +11°C° 0 mm 3 m/s 766 mmHg 37%
    12:00 +12°C° 0 mm 3 m/s 766 mmHg 35%
    13:00 +13°C° 0 mm 3 m/s 766 mmHg 33%
    14:00 +14°C° 0 mm 3 m/s 766 mmHg 32%
    15:00 +14°C° 0 mm 3 m/s 765 mmHg 33%
    16:00 +14°C° 0 mm 3 m/s 765 mmHg 33%
    17:00 +13°C° 0 mm 3 m/s 765 mmHg 34%
    18:00 +12°C° 0 mm 3 m/s 765 mmHg 41%
    19:00 +10°C° 0 mm 2 m/s 764 mmHg 47%
    20:00 +8°C° 0 mm 2 m/s 764 mmHg 54%
    21:00 +7°C° 0 mm 2 m/s 765 mmHg 55%
    22:00 +6°C° 0 mm 2 m/s 765 mmHg 57%
    23:00 +5°C° 0 mm 3 m/s 765 mmHg 59%

    Amanhã, 7 Abril, Terça-feira

    Tempo Temperatura Precipitação Vento Pressão Humidade
    00:00 +4°C° 0 mm 3 m/s 765 mmHg 60%
    01:00 +4°C° 0 mm 3 m/s 765 mmHg 61%
    02:00 +4°C° 0 mm 3 m/s 764 mmHg 62%
    03:00 +3°C° 0 mm 3 m/s 764 mmHg 63%
    04:00 +3°C° 0 mm 3 m/s 764 mmHg 64%
    05:00 +3°C° 0 mm 3 m/s 764 mmHg 66%
    06:00 +4°C° 0 mm 3 m/s 764 mmHg 63%
    07:00 +5°C° 0 mm 4 m/s 764 mmHg 60%
    08:00 +7°C° 0 mm 4 m/s 764 mmHg 58%
    09:00 +10°C° 0 mm 4 m/s 763 mmHg 54%
    10:00 +12°C° 0 mm 4 m/s 763 mmHg 50%
    11:00 +14°C° 0 mm 4 m/s 763 mmHg 47%
    12:00 +15°C° 0 mm 5 m/s 763 mmHg 44%
    13:00 +16°C° 0 mm 5 m/s 762 mmHg 41%
    14:00 +17°C° 0 mm 5 m/s 762 mmHg 38%
    15:00 +17°C° 0 mm 5 m/s 762 mmHg 39%
    16:00 +17°C° 0 mm 5 m/s 762 mmHg 40%
    17:00 +17°C° 0 mm 5 m/s 761 mmHg 41%
    18:00 +15°C° 0 mm 4 m/s 761 mmHg 48%
    19:00 +13°C° 0 mm 3 m/s 761 mmHg 55%
    20:00 +11°C° 0 mm 3 m/s 761 mmHg 63%
    21:00 +10°C° 0 mm 3 m/s 761 mmHg 70%
    22:00 +10°C° 0 mm 3 m/s 762 mmHg 77%
    23:00 +9°C° 0 mm 3 m/s 762 mmHg 85%

    Depois de amanhã, 8 Abril, Quarta-feira

    Tempo Temperatura Precipitação Vento Pressão Humidade
    00:00 +8°C° 0 mm 2 m/s 762 mmHg 88%
    01:00 +7°C° 0 mm 2 m/s 762 mmHg 91%
    02:00 +6°C° 0 mm 2 m/s 762 mmHg 94%
    03:00 +5°C° 0 mm 2 m/s 762 mmHg 93%
    04:00 +5°C° 0 mm 2 m/s 762 mmHg 93%
    05:00 +5°C° 0 mm 1 m/s 762 mmHg 93%
    06:00 +6°C° 0 mm 1 m/s 762 mmHg 86%
    07:00 +8°C° 0 mm 1 m/s 762 mmHg 80%
    08:00 +9°C° 0 mm 1 m/s 762 mmHg 73%
    09:00 +11°C° 0 mm 1 m/s 762 mmHg 65%
    10:00 +13°C° 0 mm 1 m/s 762 mmHg 57%
    11:00 +15°C° 0 mm 1 m/s 762 mmHg 49%
    12:00 +16°C° 0 mm 1 m/s 761 mmHg 45%
    13:00 +16°C° 0 mm 1 m/s 761 mmHg 41%
    14:00 +18°C° 0 mm 1 m/s 761 mmHg 37%
    15:00 +18°C° 0 mm 1 m/s 760 mmHg 38%
    16:00 +18°C° 0 mm 1 m/s 759 mmHg 38%
    17:00 +18°C° 0 mm 1 m/s 759 mmHg 38%
    18:00 +15°C° 0 mm 1 m/s 759 mmHg 44%
    19:00 +13°C° 0 mm 1 m/s 758 mmHg 50%
    20:00 +11°C° 0 mm 1 m/s 758 mmHg 55%
    21:00 +11°C° 0 mm 1 m/s 758 mmHg 56%
    22:00 +10°C° 0 mm 1 m/s 758 mmHg 56%
    23:00 +10°C° 0 mm 1 m/s 757 mmHg 56%

    9 Abril, Quinta-feira

    Tempo Temperatura Precipitação Vento Pressão Humidade
    00:00 +9°C° 0 mm 2 m/s 757 mmHg 58%
    01:00 +8°C° 0 mm 2 m/s 756 mmHg 61%
    02:00 +8°C° 0 mm 2 m/s 756 mmHg 63%
    03:00 +9°C° 0 mm 2 m/s 756 mmHg 65%
    04:00 +9°C° 0 mm 2 m/s 755 mmHg 68%
    05:00 +9°C° 0 mm 3 m/s 755 mmHg 70%
    06:00 +10°C° 0 mm 3 m/s 754 mmHg 69%
    07:00 +11°C° 0 mm 3 m/s 754 mmHg 68%
    08:00 +12°C° 0 mm 4 m/s 753 mmHg 67%
    09:00 +13°C° 0 mm 4 m/s 753 mmHg 59%
    10:00 +15°C° 0 mm 4 m/s 753 mmHg 51%
    11:00 +17°C° 0 mm 5 m/s 752 mmHg 42%
    12:00 +17°C° 0 mm 5 m/s 752 mmHg 40%
    13:00 +19°C° 0 mm 6 m/s 751 mmHg 38%
    14:00 +19°C° 0 mm 6 m/s 751 mmHg 35%
    15:00 +17°C° 0.1 mm 6 m/s 750 mmHg 46%
    16:00 +15°C° 0.1 mm 6 m/s 750 mmHg 57%
    17:00 +14°C° 0.1 mm 6 m/s 750 mmHg 67%
    18:00 +12°C° 0.5 mm 5 m/s 750 mmHg 71%
    19:00 +11°C° 0.5 mm 4 m/s 750 mmHg 74%
    20:00 +9°C° 0.5 mm 3 m/s 750 mmHg 78%
    21:00 +9°C° 0 mm 3 m/s 750 mmHg 80%
    22:00 +8°C° 0 mm 3 m/s 750 mmHg 82%
    23:00 +8°C° 0 mm 3 m/s 750 mmHg 85%

    10 Abril, Sexta-feira

    Tempo Temperatura Precipitação Vento Pressão Humidade
    00:00 +6°C° 0 mm 4 m/s 751 mmHg 84%
    01:00 +5°C° 0 mm 4 m/s 751 mmHg 83%
    02:00 +4°C° 0 mm 4 m/s 751 mmHg 83%
    03:00 +3°C° 0 mm 4 m/s 751 mmHg 85%
    04:00 +3°C° 0 mm 3 m/s 751 mmHg 87%
    05:00 +3°C° 0 mm 3 m/s 752 mmHg 90%
    06:00 +4°C° 0 mm 3 m/s 752 mmHg 84%
    07:00 +4°C° 0 mm 3 m/s 753 mmHg 78%
    08:00 +4°C° 0 mm 3 m/s 753 mmHg 73%
    09:00 +7°C° 0 mm 3 m/s 753 mmHg 61%
    10:00 +8°C° 0 mm 3 m/s 754 mmHg 50%
    11:00 +10°C° 0 mm 3 m/s 754 mmHg 38%
    12:00 +10°C° 0 mm 4 m/s 754 mmHg 37%
    13:00 +11°C° 0 mm 4 m/s 753 mmHg 35%
    14:00 +12°C° 0 mm 5 m/s 753 mmHg 34%
    15:00 +10°C° 0 mm 5 m/s 753 mmHg 39%
    16:00 +10°C° 0 mm 6 m/s 753 mmHg 43%
    17:00 +10°C° 0 mm 6 m/s 753 mmHg 48%
    18:00 +8°C° 0 mm 5 m/s 754 mmHg 54%
    19:00 +6°C° 0 mm 4 m/s 754 mmHg 60%
    20:00 +5°C° 0 mm 3 m/s 754 mmHg 67%
    21:00 +4°C° 0 mm 3 m/s 755 mmHg 66%
    22:00 +3°C° 0 mm 3 m/s 755 mmHg 65%
    23:00 +3°C° 0 mm 2 m/s 755 mmHg 65%

    11 Abril, Sábado

    Tempo Temperatura Precipitação Vento Pressão Humidade
    00:00 +2°C° 0 mm 2 m/s 755 mmHg 66%
    01:00 +2°C° 0 mm 2 m/s 755 mmHg 68%
    02:00 +1°C° 0 mm 2 m/s 755 mmHg 70%
    03:00 +1°C° 0 mm 1 m/s 755 mmHg 70%
    04:00 +1°C° 0 mm 1 m/s 755 mmHg 71%
    05:00 0°C° 0 mm 1 m/s 755 mmHg 71%
    06:00 +1°C° 0 mm 1 m/s 755 mmHg 65%
    07:00 +3°C° 0 mm 1 m/s 755 mmHg 59%
    08:00 +4°C° 0 mm 1 m/s 755 mmHg 52%
    09:00 +5°C° 0 mm 1 m/s 754 mmHg 48%
    10:00 +7°C° 0 mm 1 m/s 754 mmHg 43%
    11:00 +7°C° 0 mm 2 m/s 753 mmHg 39%
    12:00 +8°C° 0 mm 2 m/s 752 mmHg 39%
    13:00 +9°C° 0 mm 2 m/s 752 mmHg 39%
    14:00 +10°C° 0 mm 2 m/s 751 mmHg 40%
    15:00 +10°C° 0 mm 2 m/s 750 mmHg 42%
    16:00 +12°C° 0 mm 2 m/s 750 mmHg 45%
    17:00 +12°C° 0 mm 2 m/s 749 mmHg 47%
    18:00 +10°C° 0 mm 2 m/s 748 mmHg 52%
    19:00 +9°C° 0 mm 2 m/s 748 mmHg 56%
    20:00 +8°C° 0 mm 2 m/s 747 mmHg 61%
    21:00 +8°C° 0 mm 2 m/s 747 mmHg 61%
    22:00 +8°C° 0 mm 2 m/s 747 mmHg 61%
    23:00 +8°C° 0 mm 2 m/s 746 mmHg 62%
    Mostrar mais